St. David's Bench

*Note: All times are displayed in the local standard time of the station location.
**Rain - Equipment is designed to accurately record liquid precipitation; under conditions when precipitation is not in liquid form, the data displayed may not properly reflect rainfall values.

Date Max Temp
(°C)
Min Temp
(°C)
Avg Temp
(°C)
Rain (mm) Avg RH (%)
Fri, Feb 15, 2019 5.8 -4.3 1.5 2.2 72.8
Thu, Feb 14, 2019 6.3 -4.7 -0.2 0.0 67.5
Wed, Feb 13, 2019 1.1 -4.6 -2.5 0.2 78.4
Tue, Feb 12, 2019 2.6 -5.5 -2.2 11.8 89.1
Mon, Feb 11, 2019 -2.2 -5.2 -3.6 0.0 75.7
Sun, Feb 10, 2019 -2.6 -8.9 -5.7 0.0 70.8
Sat, Feb 09, 2019 -3.5 -9.8 -7.0 0.0 66.4
DateTime Avg Temp (°C) Rain (mm) RH (%)
Sat, Feb 16, 2019 16:00 -2.0 0.0 60.2
Sat, Feb 16, 2019 15:00 -2.5 0.0 63.0
Sat, Feb 16, 2019 14:00 -2.4 0.0 62.5
Sat, Feb 16, 2019 13:00 -2.9 0.0 64.6
Sat, Feb 16, 2019 12:00 -3.3 0.0 65.2
Sat, Feb 16, 2019 11:00 -3.4 0.0 65.5
Sat, Feb 16, 2019 10:00 -3.7 0.0 65.9
Sat, Feb 16, 2019 09:00 -3.6 0.0 65.0
Sat, Feb 16, 2019 08:00 -4.4 0.0 67.2
Sat, Feb 16, 2019 07:00 -4.3 0.0 69.5
Sat, Feb 16, 2019 06:00 -3.4 0.0 71.0
Sat, Feb 16, 2019 05:00 -3.5 0.0 80.1
Sat, Feb 16, 2019 04:00 -3.7 0.0 79.6
Sat, Feb 16, 2019 03:00 -3.7 0.0 78.1
Sat, Feb 16, 2019 02:00 -3.8 0.0 74.9
Sat, Feb 16, 2019 01:00 -4.0 0.0 73.1
Sat, Feb 16, 2019 00:00 -4.2 0.0 71.2
Fri, Feb 15, 2019 23:00 -4.2 0.0 70.7
Fri, Feb 15, 2019 22:00 -3.7 0.0 70.0
Fri, Feb 15, 2019 21:00 -3.1 0.0 67.9
Fri, Feb 15, 2019 20:00 -2.4 0.0 69.6
Fri, Feb 15, 2019 19:00 -1.8 0.0 67.1
Fri, Feb 15, 2019 18:00 -1.1 0.0 65.9
Fri, Feb 15, 2019 17:00 -0.4 0.0 64.5
Fri, Feb 15, 2019 16:00 0.2 0.0 67.9
Fri, Feb 15, 2019 15:00 0.7 0.0 66.3
Fri, Feb 15, 2019 14:00 1.8 0.0 64.9
Fri, Feb 15, 2019 13:00 2.1 0.0 65.1
Fri, Feb 15, 2019 12:00 2.7 0.0 71.6
Fri, Feb 15, 2019 11:00 4.3 0.0 76.6
Fri, Feb 15, 2019 10:00 4.2 0.0 83.9
Fri, Feb 15, 2019 09:00 4.2 0.2 89.3
Fri, Feb 15, 2019 08:00 4.2 0.0 90.3
Fri, Feb 15, 2019 07:00 4.0 0.2 92.9
Fri, Feb 15, 2019 06:00 4.0 1.0 91.0
Fri, Feb 15, 2019 05:00 3.8 0.6 90.6
Fri, Feb 15, 2019 04:00 5.3 0.2 71.7
Fri, Feb 15, 2019 03:00 5.3 0.0 63.8
Fri, Feb 15, 2019 02:00 4.4 0.0 58.4
Fri, Feb 15, 2019 01:00 4.8 0.0 57.1
Fri, Feb 15, 2019 00:00 5.6 0.0 56.7
Thu, Feb 14, 2019 23:00 4.7 0.0 54.8
Thu, Feb 14, 2019 22:00 4.0 0.0 57.2
Thu, Feb 14, 2019 21:00 2.6 0.0 64.9
Thu, Feb 14, 2019 20:00 0.0 0.0 75.6
Thu, Feb 14, 2019 19:00 0.7 0.0 68.5
Thu, Feb 14, 2019 18:00 1.4 0.0 64.1
Thu, Feb 14, 2019 17:00 2.5 0.0 58.2


asterix Register now to access more data! asterix